Regional Weather Roundup
Issued by NWS

Home | Current Version | Previous Version | Text Only | Print | Product List | Glossary Off
Versions: 1 2 3 4 5 6 7 8 9 10 11 12 13 14 15 16 17 18 19 20 21 22 23 24 25 26 27 28 29 30 31 32 33 34 35 36 37 38 39 40 41 42 43 44 45 46 47 48 49 50

000
ASUS43 KDTX 190601
RWRMI
MICHIGAN HOURLY REGIONAL WEATHER ROUNDUP
NATIONAL WEATHER SERVICE DETROIT/PONTIAC MI
100 AM EST SUN FEB 19 2017

NOTE: "FAIR" INDICATES FEW OR NO CLOUDS BELOW 12,000 FEET WITH NO
SIGNIFICANT WEATHER AND/OR OBSTRUCTION TO VISIBILITY.

MIZ047>049-052>055-059>063-066>070-074>076-081>083-190700-
SOUTHEAST LOWER MICHIGAN

CITY           SKY/WX    TMP DP  RH WIND       PRES   REMARKS
ADRIAN         CLEAR     41  38  89 NW5       29.82R
6HR MIN TEMP:  37; 6HR MAX TEMP:  58;

ALMA           CLOUDY    40  35  81 W10G16    29.81R WCI  34
ANN ARBOR      CLEAR     47  36  65 W7        29.80R
BAD AXE        CLOUDY    38  34  84 W3        29.77R
6HR MIN TEMP:  38; 6HR MAX TEMP:  48;

CARO           CLEAR     36  33  90 SW3       29.77S
DETROIT CITY   CLEAR     49  36  61 W7        29.79R
6HR MIN TEMP:  49; 6HR MAX TEMP:  60;

DETROIT        CLEAR     45  36  70 W7        29.80R
6HR MIN TEMP:  43; 6HR MAX TEMP:  61;

FLINT          CLOUDY    40  34  79 W7        29.80R
6HR MIN TEMP:  39; 6HR MAX TEMP:  51;

GROSSE ILE     CLEAR     47  38  68 W3        29.78R
6HR MIN TEMP:  47; 6HR MAX TEMP:  58;

HILLSDALE      PTCLDY    39  34  81 W5        29.81S
HOWELL         CLOUDY    40  34  77 W6        29.80S
6HR MIN TEMP:  40; 6HR MAX TEMP:  56;


CITY           SKY/WX    TMP DP  RH WIND       PRES   REMARKS
JACKSON        CLEAR     39  33  79 SW6       29.81R WCI  35
6HR MIN TEMP:  39; 6HR MAX TEMP:  56;

LAMBERTVILLE   CLEAR     46  39  77 W3        29.81R
6HR MIN TEMP:  42; 6HR MAX TEMP:  62;

LANSING        CLEAR     44  34  67 W6        29.82R
6HR MIN TEMP:  43; 6HR MAX TEMP:  55;

LAPEER         FAIR      43  36  75 W3        29.79R
6HR MIN TEMP:  43; 6HR MAX TEMP:  54;

MASON          CLEAR     39  34  83 CALM      29.81R
MONROE         CLEAR     42  38  87 W6        29.79S
6HR MIN TEMP:  38; 6HR MAX TEMP:  56;

MT. CLEMENS    CLEAR     46  37  69 W5        29.76R
6HR MIN TEMP:  46; 6HR MAX TEMP:  59;

PONTIAC        CLEAR     44  35  70 W8        29.78R
6HR MIN TEMP:  43; 6HR MAX TEMP:  56;

PORT HOPE        N/A     44  35  70 W6        29.74R
6HR MIN TEMP:  42; 6HR MAX TEMP:  51;

PORT HURON     CLEAR     46  37  71 W6        29.78R
TRI CITIES     CLOUDY    39  35  86 SW9       29.78S WCI  33
6HR MIN TEMP:  37; 6HR MAX TEMP:  53;

MIDLAND        FAIR      42  33  71 CALM      29.77S
6HR MIN TEMP:  42; 6HR MAX TEMP:  50;

TROY           CLEAR     49  34  56 NW10      29.80R
SAGINAW HB     CLOUDY    41  34  75 SW8       29.78S
$$
MIZ043>046-050>051-056>058-064>065-071>073-077>080-190700-
SOUTHWEST LOWER MICHIGAN

CITY           SKY/WX    TMP DP  RH WIND       PRES   REMARKS
BATTLE CREEK   CLEAR     40  34  79 CALM      29.83R
6HR MIN TEMP:  38; 6HR MAX TEMP:  54;

BENTON HARBOR  CLEAR     34  30  85 CALM      29.85R
6HR MIN TEMP:  34; 6HR MAX TEMP:  49;

BIG RAPIDS     MOCLDY    32  30  94 CALM      29.80R
6HR MIN TEMP:  32; 6HR MAX TEMP:  49;

COLDWATER      CLEAR     38  33  82 CALM      29.83R
6HR MIN TEMP:  37; 6HR MAX TEMP:  54;

FREMONT        FAIR      32  32  99 SW3       29.81R
HOLLAND        PTCLDY    38  32  79 W6        29.85R WCI  33
6HR MIN TEMP:  35; 6HR MAX TEMP:  44;

GRAND RAPIDS   CLEAR     37  32  82 W3        29.83R
6HR MIN TEMP:  35; 6HR MAX TEMP:  46;

IONIA          FAIR      37  33  84 W6        29.82R WCI  33
6HR MIN TEMP:  37; 6HR MAX TEMP:  48;

KALAMAZOO      CLEAR     36  30  79 CALM      29.84R
6HR MIN TEMP:  36; 6HR MAX TEMP:  56;

LUDINGTON      PTCLDY    40  33  77 NW3       29.81R
6HR MIN TEMP:  39; 6HR MAX TEMP:  44;

MARSHALL       CLEAR     36  34  92 CALM      29.82R
6HR MIN TEMP:  34; 6HR MAX TEMP:  53;

MOUNT PLEASANT PTCLDY    40  35  83 SW7       29.78S WCI  35
6HR MIN TEMP:  36; 6HR MAX TEMP:  52;

MUSKEGON       PTCLDY    34  31  88 S3        29.84R FOG
6HR MIN TEMP:  33; 6HR MAX TEMP:  42;

SOUTH HAVEN    PTCLDY    32  30  93 CALM      29.85R
$$
MIZ016>042-190700-
NORTHERN LOWER MICHIGAN

CITY           SKY/WX    TMP DP  RH WIND       PRES   REMARKS
ALPENA         CLOUDY    30  28  92 W3        29.74R
6HR MIN TEMP:  28; 6HR MAX TEMP:  49;

BEAVER ISLAND  PTCLDY    36  32  83 W6        29.74R WCI  32
6HR MIN TEMP:  29; 6HR MAX TEMP:  38;

BELLAIRE       CLOUDY    29  29  99 CALM      29.78R
6HR MIN TEMP:  28; 6HR MAX TEMP:  45;

CADILLAC       PTCLDY    32  30  95 CALM      29.78R
CHARLEVOIX     PTCLDY    40  32  73 CALM      29.78R
FRANKFORT      CLOUDY    35  33  92 CALM      29.80R
GAYLORD        PTCLDY    38  31  76 W3        29.75R
6HR MIN TEMP:  37; 6HR MAX TEMP:  47;

GRAYLING       PTCLDY    38  34  84 CALM      29.78R
6HR MIN TEMP:  32; 6HR MAX TEMP:  47;

HARBOR SPRINGS CLEAR     32  32  99 CALM      29.75R
HOUGHTON LAKE  CLOUDY    33  31  92 W3        29.76R
6HR MIN TEMP:  32; 6HR MAX TEMP:  46;

MANISTEE       PTCLDY    30  29  96 W3        29.81R
OSCODA         MOCLDY    42  32  68 W14       29.73R
6HR MIN TEMP:  37; 6HR MAX TEMP:  45;

PELLSTON       CLEAR     27  25  92 CALM      29.74R
6HR MIN TEMP:  27; 6HR MAX TEMP:  45;

ROGERS CITY    PTCLDY    41  33  74 SW9       29.74R
TRAVERSE CITY  CLOUDY    38  33  82 S3        29.77R
6HR MIN TEMP:  38; 6HR MAX TEMP:  49;

$$
MIZ007>008-015-190700-
EASTERN UPPER MICHIGAN

CITY           SKY/WX    TMP DP  RH WIND       PRES   REMARKS
KINROSS        CLEAR     35  30  82 SW9       29.69R WCI  28
6HR MIN TEMP:  34; 6HR MAX TEMP:  43;

MACKINAC ISLAN CLEAR     37  33  82 SW12      29.72R WCI  30
6HR MIN TEMP:  35; 6HR MAX TEMP:  37;

NEWBERRY       CLEAR     38  30  72 W13       29.71R WCI  31
6HR MIN TEMP:  36; 6HR MAX TEMP:  42;

S. S. MARIE    CLEAR     41  31  67 W8        29.67R
6HR MIN TEMP:  38; 6HR MAX TEMP:  43;

MUNISING         N/A     48  30  49 VRB5      29.73R
6HR MIN TEMP:  32; 6HR MAX TEMP:  49;

$$
MIZ004>006-011>014-085-190700-
CENTRAL UPPER MICHIGAN

CITY           SKY/WX    TMP DP  RH WIND       PRES   REMARKS
MANISTIQUE     PTCLDY    42  30  63 W7        29.73S
6HR MIN TEMP:  30; 6HR MAX TEMP:  42;

ESCANABA       MOCLDY    46  29  51 W9        29.76R
6HR MIN TEMP:  30; 6HR MAX TEMP:  54;

MENOMINEE      MOCLDY    43  29  57 W5        29.80R
6HR MIN TEMP:  43; 6HR MAX TEMP:  51;

SAWYER-GWINN   MOCLDY    42  29  61 NW5       29.75R
6HR MIN TEMP:  42; 6HR MAX TEMP:  48;

$$
MIZ001>003-009>011-084-190700-
WESTERN UPPER MICHIGAN

CITY           SKY/WX    TMP DP  RH WIND       PRES   REMARKS
IRON MOUNTAIN  MOCLDY    44  26  49 NW9       29.76S
6HR MIN TEMP:  38; 6HR MAX TEMP:  53;

HOUGHTON       CLEAR     40  31  70 NW18      29.74R WCI  31
6HR MIN TEMP:  40; 6HR MAX TEMP:  47;

COPPER HARBOR    N/A     45  31  58 N16G25    29.72R
6HR MIN TEMP:  43; 6HR MAX TEMP:  51;

IRONWOOD       PTCLDY    41  29  62 SW5       29.81R
6HR MIN TEMP:  40; 6HR MAX TEMP:  47;

$$

ABBREVIATIONS USED IN REMARKS
   TC - TEMPERATURE IN CELSIUS
  WCI - WIND CHILL INDEX
   HX - HEAT INDEX
  VSB - VISIBILITY





USA.gov is the U.S. government's official web portal to all federal, state and local government web resources and services.